Theta_e
339 342 345 346 347 349 351 351 349 353 352 351 349 349 349 353 358 360 365 367 369 366 366 362 364 361 358 363 362 355 355 359 358 358 354 349 353 353 354 356 357 355 357
337 340 344 345 346 348 351 353 352 354 353 350 352 351 351 352 361 359 363 365 367 369 367 363 364 364 362 359 359 358 361 359 356 353 346 348 349 353 354 356 355 357 358
337 337 340 343 345 346 349 352 354 354 356 355 354 356 357 360 357 357 359 367 367 365 365 366 363 364 365 363 362 360 357 356 362 356 352 346 342 353 353 354 355 356 355
338 338 338 340 342 345 348 351 354 355 356 357 355 359 352 349 352 357 357 361 368 366 364 364 367 369 360 364 361 356 362 361 354 352 355 355 353 347 345 351 355 358 357
338 338 338 340 342 345 346 350 353 355 357 357 362 355 356 353 355 355 362 364 367 365 362 363 369 369 360 361 354 361 361 357 353 351 359 357 355 358 357 344 345 351 358
338 339 341 341 342 345 346 348 351 354 356 357 358 358 358 357 355 355 358 358 359 360 360 364 368 364 363 360 356 362 362 365 357 355 357 352 351 348 352 348 347 349 352
338 339 340 340 342 343 345 346 350 353 357 356 357 357 359 361 362 359 352 357 355 356 361 365 364 362 366 364 362 362 361 362 358 361 353 353 356 360 352 355 345 345 349
339 340 341 342 342 344 346 347 348 352 355 355 356 361 360 357 358 357 352 353 356 357 365 360 356 365 366 365 366 359 358 362 359 360 359 354 356 356 353 349 347 343 347
339 339 341 342 343 344 346 348 349 352 354 353 357 358 359 359 357 362 361 358 363 361 363 361 362 364 365 366 365 358 361 360 361 358 360 362 355 370 357 355 360 346 339
339 339 340 341 343 344 346 348 350 351 353 352 354 355 357 360 360 362 363 362 364 364 361 361 361 363 365 366 366 361 364 362 357 357 363 368 367 361 363 365 355 356 348
337 339 340 342 343 344 345 347 348 350 351 352 354 355 355 358 360 358 362 365 365 364 362 363 362 360 360 365 365 364 363 364 365 364 364 359 364 358 356 357 356 352 350
338 340 341 342 343 344 345 347 349 349 351 353 355 354 356 358 356 357 360 363 364 364 363 363 362 361 362 364 363 362 362 362 361 360 362 361 358 363 362 354 356 352 358
338 339 341 342 343 344 353 354 350 351 351 354 352 353 355 356 355 359 361 362 364 364 363 364 363 361 360 362 361 364 364 364 362 362 361 360 361 358 354 354 349 354 355
338 339 340 342 344 347 356 358 355 352 356 355 353 358 357 358 358 362 363 364 365 365 364 364 363 362 360 361 360 363 365 366 363 363 362 361 357 356 355 352 358 354 351
336 339 338 341 345 348 353 355 356 363 364 365 364 363 367 369 370 367 366 366 366 366 365 361 358 357 358 356 360 361 364 367 364 365 365 361 356 346 348 349 355 355 349
337 339 342 344 346 347 350 357 359 363 366 367 366 371 372 371 370 370 369 366 366 366 364 359 356 354 350 343 345 356 365 367 365 363 363 358 350 347 341 343 346 349 352
335 340 342 344 347 349 357 354 360 361 364 362 365 367 370 369 369 369 367 365 365 365 363 361 358 355 355 339 340 343 364 365 363 365 360 350 348 349 352 338 341 341 340
334 341 343 343 347 349 352 356 357 362 364 363 366 368 367 368 369 368 367 367 365 364 363 362 360 357 357 336 335 340 361 366 364 364 359 353 350 349 348 347 346 345 345
333 339 344 343 347 349 357 357 356 358 359 361 366 368 368 367 368 367 367 367 365 364 364 364 364 362 362 335 333 342 361 362 363 363 360 356 351 335 331 347 345 342 338
331 334 339 342 344 348 352 355 355 356 361 364 367 370 369 372 369 370 372 371 366 364 362 362 364 354 365 332 331 342 359 360 358 362 361 342 347 327 328 346 345 337 335
335 335 339 341 345 350 352 353 354 354 358 361 365 369 370 372 374 375 373 371 369 369 365 364 365 366 363 361 329 330 363 358 357 355 355 355 327 323 323 324 344 336 337
340 339 339 341 346 351 353 354 356 361 367 367 364 370 371 365 366 374 375 373 372 372 367 367 362 361 368 342 327 328 332 347 359 356 355 353 322 318 319 324 325 327 328
342 343 343 343 347 351 353 353 363 368 366 367 368 367 370 367 373 372 370 366 369 359 361 359 357 355 360 364 330 325 327 331 357 360 346 323 316 316 320 322 323 323 333
343 344 345 346 348 353 356 359 364 367 365 364 365 365 365 364 367 365 364 359 357 355 352 352 352 353 356 359 362 352 342 332 343 334 344 333 331 328 332 327 326 331 333
349 347 347 348 353 356 357 359 364 364 362 362 361 362 362 362 365 363 360 357 360 351 350 352 352 352 353 356 346 348 357 358 350 351 353 341 339 339 340 336 335 332 332
358 357 355 354 352 355 358 362 366 365 363 359 359 357 356 359 359 358 356 315 321 319 320 320 338 353 332 320 322 319 317 320 320 350 352 345 345 344 341 338 336 334 330
Wind_Speed
19 20 18 18 17 16 16 16 15 14 10 9 9 8 8 7 6 6 5 8 7 10 9 7 8 8 7 5 5 7 9 6 4 3 2 5 9 10 10 8 8 10 10
20 20 20 19 18 17 16 16 16 15 12 9 8 7 7 7 4 5 5 8 9 9 7 6 7 8 4 6 6 7 4 6 4 2 3 2 0 6 5 5 6 7 8
20 22 22 21 19 18 18 17 17 15 14 13 8 6 5 4 6 7 7 8 8 8 8 8 6 6 6 4 5 6 7 4 3 2 5 1 1 1 3 4 4 4 6
21 19 23 22 21 20 18 17 16 16 14 14 10 11 8 8 8 7 6 3 6 6 7 6 5 7 5 4 5 6 3 5 3 5 4 4 4 1 2 3 3 3 5
22 22 21 23 23 20 18 17 17 16 16 16 12 11 10 7 5 5 3 7 5 5 6 7 5 6 7 5 3 4 4 4 4 6 1 3 3 1 2 2 4 4 2
23 23 21 20 20 19 18 17 17 17 17 16 16 13 12 9 6 7 5 4 6 7 10 8 6 7 5 6 6 5 7 7 4 5 3 4 2 3 1 3 4 1 2
24 23 23 21 19 20 19 17 18 17 17 17 16 16 14 12 9 9 7 4 6 5 6 7 7 6 7 6 7 6 7 7 6 6 4 5 3 3 4 3 5 4 3
22 23 23 22 22 21 20 19 19 18 18 18 17 14 15 10 9 10 5 7 4 4 4 6 3 6 6 6 6 6 8 7 7 7 6 5 5 5 4 5 5 7 5
23 24 24 23 23 22 21 20 19 18 19 20 16 15 14 13 10 9 9 7 5 3 5 6 8 6 6 6 7 6 6 6 7 7 7 7 6 3 6 3 2 6 7
20 21 21 22 21 22 21 20 19 20 20 20 17 15 15 14 12 10 10 7 5 6 6 7 7 7 7 7 7 6 7 6 6 7 5 4 3 7 2 3 5 6 7
16 19 20 20 20 19 20 20 19 18 18 18 17 16 15 16 14 12 10 8 8 8 7 7 7 7 8 8 7 6 3 8 7 5 4 6 7 4 6 5 5 5 5
16 16 19 20 20 19 19 19 18 18 18 17 16 17 15 15 15 13 12 11 10 9 9 9 8 9 8 7 7 7 5 6 7 6 5 6 6 5 4 5 2 6 3
14 15 17 18 19 19 16 17 19 18 18 17 18 17 16 16 15 14 13 12 11 10 10 10 10 10 9 8 7 7 5 6 6 6 6 5 5 4 3 4 5 2 5
14 16 16 17 18 18 16 16 17 18 17 18 18 16 17 17 15 14 14 13 12 11 10 10 10 10 10 9 8 8 7 6 7 6 5 5 3 2 3 4 2 3 5
15 17 18 17 18 18 17 16 16 14 15 15 15 16 15 13 13 13 14 13 12 11 10 9 10 10 9 9 11 9 8 8 7 7 6 4 5 6 4 5 2 3 6
17 18 17 18 19 20 19 16 15 15 15 15 15 14 14 14 14 13 14 14 13 12 11 10 10 11 9 11 11 8 8 8 8 7 6 6 8 6 4 2 3 5 4
16 18 20 20 19 19 17 19 17 17 16 16 14 15 15 15 15 15 15 15 14 13 12 11 11 12 12 11 10 8 8 8 9 9 8 7 5 5 6 4 3 3 1
16 17 17 17 18 18 18 17 18 17 16 16 15 15 15 15 15 15 15 15 14 14 13 12 12 11 10 9 10 10 10 8 10 11 9 7 7 6 5 5 4 4 4
11 15 16 17 16 18 18 18 18 17 18 17 16 16 16 16 16 16 16 15 14 13 13 12 12 12 11 12 12 11 11 10 11 10 9 9 8 9 4 5 4 4 4
11 12 17 17 19 19 20 20 19 19 18 17 17 16 16 16 17 16 15 14 14 14 12 13 13 13 12 13 13 13 11 10 9 10 10 5 6 13 8 7 5 4 4
7 10 14 17 18 19 20 20 20 21 19 17 16 15 16 15 15 15 13 14 13 12 13 13 12 14 14 12 16 17 13 9 10 9 9 8 11 12 9 6 5 3 1
5 7 9 13 16 18 19 19 19 17 15 16 17 16 15 14 13 14 13 13 13 11 12 11 11 12 13 12 15 16 19 9 10 10 8 7 16 9 7 7 5 2 6
6 7 8 12 14 17 17 17 13 14 16 16 16 16 15 15 12 14 14 13 13 12 12 12 12 11 11 11 15 18 17 13 8 8 4 17 16 11 7 5 7 7 8
9 11 11 12 12 12 12 10 12 12 14 15 16 15 16 15 14 12 13 13 13 13 13 12 12 12 12 11 12 10 12 11 9 7 7 9 10 9 4 9 7 8 6
6 10 12 12 13 14 13 13 13 14 13 13 13 14 13 16 14 13 13 14 13 14 14 14 13 13 13 13 12 12 13 13 13 13 8 8 10 10 9 9 9 8 6
5 6 6 10 13 13 14 12 14 14 14 14 12 11 11 13 13 13 10 10 9 7 7 3 10 12 4 10 18 16 13 12 15 12 12 11 12 12 11 10 10 9 9
Wind_Direction
190 189 191 190 192 190 189 191 194 187 190 199 205 211 215 210 205 227 219 196 200 196 201 200 188 204 215 216 219 222 218 238 214 219 253 279 232 233 242 230 232 231 213
193 190 191 193 196 192 194 197 203 196 201 200 210 217 210 215 169 215 217 221 204 197 204 217 184 209 220 210 220 234 263 235 207 177 261 244 151 261 223 224 244 238 211
199 193 194 196 195 197 197 194 197 197 200 214 200 192 202 206 207 205 205 218 214 201 203 207 237 174 200 236 213 212 232 237 204 205 257 133 122 206 223 162 199 216 236
200 203 198 196 198 199 198 197 194 195 198 199 198 197 203 206 205 212 196 212 214 196 197 210 210 206 190 195 228 223 245 229 173 236 210 296 6 25 51 193 120 196 231
202 203 205 199 201 194 193 193 193 194 200 192 212 194 218 202 194 227 176 222 186 206 245 206 208 204 182 183 251 233 203 210 213 225 276 277 213 331 283 344 8 61 148
205 203 205 201 199 194 196 192 190 193 197 196 198 206 200 220 194 202 204 239 209 185 207 227 199 192 205 202 210 228 221 249 244 264 223 209 288 245 272 329 268 39 71
206 204 203 201 196 198 195 197 194 194 192 196 196 200 211 210 197 201 196 226 233 207 177 202 205 199 205 202 223 220 219 219 231 226 250 269 198 297 294 337 315 300 274
207 205 201 199 199 198 195 196 192 197 191 193 199 197 205 204 210 208 211 214 231 212 135 192 258 211 207 202 200 206 217 210 223 231 248 261 221 239 260 276 319 305 297
203 203 199 201 200 199 200 195 195 198 194 192 192 194 198 212 209 218 204 215 215 186 196 203 204 205 201 199 190 220 209 222 224 213 232 239 268 3 288 304 220 287 301
196 201 196 197 198 199 197 196 194 194 193 193 191 191 194 198 203 208 218 217 190 204 191 199 199 196 202 197 202 200 200 208 217 227 209 265 274 265 343 258 250 254 279
190 195 195 192 194 198 194 192 194 190 191 196 190 193 196 193 197 203 210 207 198 192 201 197 197 207 206 202 199 228 205 208 219 244 221 225 238 255 235 234 259 267 252
183 190 191 187 193 188 191 190 190 190 188 186 186 193 195 198 193 200 199 197 195 199 200 196 197 200 202 199 207 214 213 210 220 206 219 226 213 227 229 252 281 316 331
173 187 189 186 189 182 187 188 187 192 183 183 187 188 194 194 199 188 194 194 194 202 202 200 201 204 208 200 208 223 218 212 210 220 213 199 187 218 335 282 311 84 229
184 190 189 184 189 185 184 185 189 188 185 183 187 181 189 192 193 186 185 187 193 198 202 205 207 204 205 202 211 208 220 216 208 200 192 188 200 259 256 260 271 236 295
191 195 195 186 188 185 181 188 188 184 183 179 186 181 184 185 182 184 180 185 189 197 197 199 203 200 199 201 210 211 213 218 207 191 191 174 76 66 22 298 77 330 247
199 199 196 185 187 187 184 185 184 182 179 181 186 177 176 178 178 179 175 182 187 193 190 189 185 187 205 185 197 225 212 200 200 187 196 150 146 138 132 75 42 358 296
196 197 194 195 188 188 178 182 181 176 179 185 186 182 178 180 180 178 178 181 187 188 193 189 186 189 210 168 187 209 241 194 193 195 197 199 141 177 162 162 166 168 157
193 197 196 199 190 184 179 178 178 178 178 184 186 184 183 183 183 180 183 180 185 191 192 193 195 200 208 168 178 193 230 206 204 198 198 203 164 187 192 212 226 259 231
225 197 194 193 183 181 169 175 176 178 179 185 188 185 184 184 183 185 184 183 185 191 196 195 195 201 211 173 180 185 212 209 209 205 203 198 188 149 185 235 254 270 273
251 214 186 185 177 176 168 171 176 178 184 186 189 183 184 187 184 184 182 183 187 193 196 196 198 198 209 176 179 190 222 205 210 208 206 200 219 148 187 232 243 251 228
242 222 194 181 176 169 167 178 177 185 187 184 184 183 187 189 184 182 178 180 188 188 200 194 198 206 209 194 185 196 229 213 214 210 204 200 151 161 186 243 249 277 283
225 191 195 179 172 171 176 184 185 179 176 176 182 184 184 189 182 183 177 179 183 189 189 192 204 206 211 219 191 201 222 225 225 222 217 192 151 160 166 217 108 132 250
169 151 172 181 176 181 189 187 172 174 174 177 181 182 182 186 176 182 179 182 184 192 194 194 205 209 194 210 170 195 216 232 246 244 217 127 137 143 175 174 162 194 232
165 153 162 172 166 176 186 186 166 175 179 187 184 181 179 181 184 186 187 197 192 199 195 203 212 206 212 205 184 201 207 222 217 159 132 142 157 191 150 152 195 234 230
136 153 167 166 167 167 180 179 167 175 186 194 197 192 189 188 185 196 194 202 204 203 203 206 210 211 209 213 204 190 198 200 207 195 167 181 188 195 199 205 204 213 204
95 116 153 161 164 171 174 175 172 176 184 188 196 200 201 187 197 193 184 56 30 333 232 314 233 212 151 155 166 180 204 195 158 202 197 207 209 208 208 207 208 210 205